Year,Month,Day,Hour,Minute,Value (Times are PST for temperature in C)
2010,10,19,00,00,9.60
2010,10,19,00,05,9.50
2010,10,19,00,06,9.50
2010,10,19,00,07,9.50
2010,10,19,00,08,9.50
2010,10,19,00,09,9.50
2010,10,19,00,10,9.50
2010,10,19,00,11,9.50
2010,10,19,00,12,9.50
2010,10,19,00,13,9.50
2010,10,19,00,14,9.50
2010,10,19,00,15,9.50
2010,10,19,00,16,9.40
2010,10,19,00,17,9.40
2010,10,19,00,18,9.40
2010,10,19,00,19,9.40
2010,10,19,00,20,9.40
2010,10,19,00,21,9.40
2010,10,19,00,22,9.40
2010,10,19,00,23,9.40
2010,10,19,00,24,9.40
2010,10,19,00,25,9.40
2010,10,19,00,26,9.40
2010,10,19,00,27,9.40
2010,10,19,00,28,9.40
2010,10,19,00,29,9.40
2010,10,19,00,30,9.40
2010,10,19,00,31,9.30
2010,10,19,00,32,9.30
2010,10,19,00,33,9.30
2010,10,19,00,34,9.30
2010,10,19,00,35,9.30
2010,10,19,00,36,9.30
2010,10,19,00,37,9.30
2010,10,19,00,38,9.30
2010,10,19,00,39,9.30
2010,10,19,00,40,9.30
2010,10,19,00,41,9.30
2010,10,19,00,42,9.20
2010,10,19,00,43,9.20
2010,10,19,00,44,9.20
2010,10,19,00,45,9.20
2010,10,19,00,46,9.20
2010,10,19,00,47,9.20
2010,10,19,00,48,9.20
2010,10,19,00,49,9.20
2010,10,19,00,50,9.20
2010,10,19,00,51,9.10
2010,10,19,00,52,9.10
2010,10,19,00,53,9.10
2010,10,19,00,54,9.10
2010,10,19,00,55,9.10
2010,10,19,00,56,9.10
2010,10,19,00,57,9.10
2010,10,19,00,58,9.10
2010,10,19,00,59,9.10
2010,10,19,01,00,9.10
2010,10,19,01,01,9.00
2010,10,19,01,02,9.00
2010,10,19,01,03,9.00
2010,10,19,01,04,9.10
2010,10,19,01,05,9.10
2010,10,19,01,06,9.10
2010,10,19,01,07,9.20
2010,10,19,01,08,9.20
2010,10,19,01,09,9.30
2010,10,19,01,10,9.30
2010,10,19,01,11,9.40
2010,10,19,01,12,9.50
2010,10,19,01,13,9.60
2010,10,19,01,14,9.70
2010,10,19,01,15,9.80
2010,10,19,01,16,9.80
2010,10,19,01,17,9.90
2010,10,19,01,18,9.90
2010,10,19,01,19,10.00
2010,10,19,01,20,10.10
2010,10,19,01,21,10.10
2010,10,19,01,22,10.20
2010,10,19,01,23,10.20
2010,10,19,01,24,10.30
2010,10,19,01,25,10.30
2010,10,19,01,26,10.30
2010,10,19,01,27,10.40
2010,10,19,01,28,10.40
2010,10,19,01,29,10.40
2010,10,19,01,30,10.40
2010,10,19,01,31,10.40
2010,10,19,01,32,10.50
2010,10,19,01,33,10.50
2010,10,19,01,34,10.50
2010,10,19,01,35,10.60
2010,10,19,01,36,10.60
2010,10,19,01,37,10.60
2010,10,19,01,38,10.60
2010,10,19,01,39,10.60
2010,10,19,01,40,10.60
2010,10,19,01,41,10.60
2010,10,19,01,42,10.50
2010,10,19,01,43,10.50
2010,10,19,01,44,10.40
2010,10,19,01,45,10.40
2010,10,19,01,46,10.40
2010,10,19,01,47,10.30
2010,10,19,01,48,10.30
2010,10,19,01,49,10.20
2010,10,19,01,50,10.20
2010,10,19,01,51,10.20
2010,10,19,01,52,10.10
2010,10,19,01,53,10.10
2010,10,19,01,54,10.10
2010,10,19,01,55,10.00
2010,10,19,01,56,10.00
2010,10,19,01,57,10.00
2010,10,19,01,58,9.90
2010,10,19,01,59,9.90
2010,10,19,02,00,9.90
2010,10,19,02,01,9.90
2010,10,19,02,02,9.90
2010,10,19,02,03,9.90
2010,10,19,02,04,9.90
2010,10,19,02,05,9.90
2010,10,19,02,06,10.00
2010,10,19,02,07,10.00
2010,10,19,02,08,10.00
2010,10,19,02,09,10.00
2010,10,19,02,10,10.10
2010,10,19,02,11,10.10
2010,10,19,02,12,10.20
2010,10,19,02,13,10.20
2010,10,19,02,14,10.20
2010,10,19,02,15,10.20
2010,10,19,02,16,10.30
2010,10,19,02,17,10.30
2010,10,19,02,18,10.30
2010,10,19,02,19,10.30
2010,10,19,02,20,10.30
2010,10,19,02,21,10.30
2010,10,19,02,22,10.30
2010,10,19,02,23,10.30
2010,10,19,02,24,10.30
2010,10,19,02,25,10.30
2010,10,19,02,26,10.30
2010,10,19,02,27,10.30
2010,10,19,02,28,10.30
2010,10,19,02,29,10.40
2010,10,19,02,30,10.30
2010,10,19,02,31,10.40
2010,10,19,02,32,10.40
2010,10,19,02,33,10.30
2010,10,19,02,34,10.30
2010,10,19,02,35,10.30
2010,10,19,02,36,10.30
2010,10,19,02,37,10.30
2010,10,19,02,38,10.30
2010,10,19,02,39,10.30
2010,10,19,02,40,10.30
2010,10,19,02,41,10.30
2010,10,19,02,42,10.30
2010,10,19,02,43,10.30
2010,10,19,02,44,10.30
2010,10,19,02,45,10.20
2010,10,19,02,46,10.20
2010,10,19,02,47,10.20
2010,10,19,02,48,10.20
2010,10,19,02,49,10.20
2010,10,19,02,50,10.10
2010,10,19,02,51,10.10
2010,10,19,02,52,10.00
2010,10,19,02,53,10.00
2010,10,19,02,54,10.00
2010,10,19,02,55,9.90
2010,10,19,02,56,9.90
2010,10,19,02,57,9.90
2010,10,19,02,58,9.90
2010,10,19,02,59,9.90
2010,10,19,03,00,9.90
2010,10,19,03,01,9.90
2010,10,19,03,02,9.90
2010,10,19,03,03,9.90
2010,10,19,03,04,9.90
2010,10,19,03,05,9.90
2010,10,19,03,06,9.80
2010,10,19,03,07,9.80
2010,10,19,03,08,9.80
2010,10,19,03,09,9.80
2010,10,19,03,10,9.70
2010,10,19,03,11,9.70
2010,10,19,03,12,9.70
2010,10,19,03,13,9.70
2010,10,19,03,14,9.60
2010,10,19,03,15,9.60
2010,10,19,03,16,9.60
2010,10,19,03,17,9.60
2010,10,19,03,18,9.60
2010,10,19,03,19,9.60
2010,10,19,03,20,9.50
2010,10,19,03,21,9.50
2010,10,19,03,22,9.50
2010,10,19,03,23,9.50
2010,10,19,03,24,9.40
2010,10,19,03,25,9.40
2010,10,19,03,26,9.40
2010,10,19,03,27,9.40
2010,10,19,03,28,9.40
2010,10,19,03,29,9.40
2010,10,19,03,30,9.40
2010,10,19,03,31,9.30
2010,10,19,03,32,9.30
2010,10,19,03,33,9.30
2010,10,19,03,34,9.30
2010,10,19,03,35,9.30
2010,10,19,03,36,9.30
2010,10,19,03,37,9.30
2010,10,19,03,38,9.20
2010,10,19,03,39,9.20
2010,10,19,03,40,9.20
2010,10,19,03,41,9.20
2010,10,19,03,42,9.10
2010,10,19,03,43,9.10
2010,10,19,03,44,9.10
2010,10,19,03,45,9.10
2010,10,19,03,46,9.10
2010,10,19,03,47,9.10
2010,10,19,03,48,9.10
2010,10,19,03,49,9.10
2010,10,19,03,50,9.10
2010,10,19,03,51,9.10
2010,10,19,03,52,9.00
2010,10,19,03,53,9.00
2010,10,19,03,54,8.90
2010,10,19,03,55,8.90
2010,10,19,03,56,8.90
2010,10,19,03,57,8.90
2010,10,19,03,58,8.90
2010,10,19,03,59,8.90
2010,10,19,04,00,8.80
2010,10,19,04,01,8.80
2010,10,19,04,02,8.80
2010,10,19,04,03,8.80
2010,10,19,04,04,8.80
2010,10,19,04,05,8.90
2010,10,19,04,06,8.90
2010,10,19,04,07,8.90
2010,10,19,04,08,8.90
2010,10,19,04,09,8.90
2010,10,19,04,10,8.90
2010,10,19,04,11,8.90
2010,10,19,04,12,8.90
2010,10,19,04,13,8.90
2010,10,19,04,14,8.90
2010,10,19,04,15,8.80
2010,10,19,04,16,8.80
2010,10,19,04,17,8.70
2010,10,19,04,18,8.70
2010,10,19,04,19,8.70
2010,10,19,04,20,8.70
2010,10,19,04,21,8.60
2010,10,19,04,22,8.60
2010,10,19,04,23,8.60
2010,10,19,04,24,8.60
2010,10,19,04,25,8.60
2010,10,19,04,26,8.60
2010,10,19,04,27,8.60
2010,10,19,04,28,8.60
2010,10,19,04,29,8.60
2010,10,19,04,30,8.60
2010,10,19,04,31,8.60
2010,10,19,04,32,8.60
2010,10,19,04,33,8.60
2010,10,19,04,34,8.60
2010,10,19,04,35,8.60
2010,10,19,04,36,8.60
2010,10,19,04,37,8.60
2010,10,19,04,38,8.60
2010,10,19,04,39,8.60
2010,10,19,04,40,8.60
2010,10,19,04,41,8.60
2010,10,19,04,42,8.60
2010,10,19,04,43,8.60
2010,10,19,04,44,8.60
2010,10,19,04,45,8.60
2010,10,19,04,46,8.60
2010,10,19,04,47,8.60
2010,10,19,04,48,8.60
2010,10,19,04,49,8.60
2010,10,19,04,50,8.60
2010,10,19,04,51,8.60
2010,10,19,04,52,8.60
2010,10,19,04,53,8.60
2010,10,19,04,54,8.60
2010,10,19,04,55,8.50
2010,10,19,04,56,8.50
2010,10,19,04,57,8.50
2010,10,19,04,58,8.40
2010,10,19,04,59,8.40
2010,10,19,05,00,8.40
2010,10,19,05,01,8.40
2010,10,19,05,02,8.40
2010,10,19,05,03,8.30
2010,10,19,05,04,8.30
2010,10,19,05,05,8.30
2010,10,19,05,06,8.30
2010,10,19,05,07,8.30
2010,10,19,05,08,8.20
2010,10,19,05,09,8.20
2010,10,19,05,10,8.20
2010,10,19,05,11,8.20
2010,10,19,05,12,8.20
2010,10,19,05,13,8.30
2010,10,19,05,14,8.30
2010,10,19,05,15,8.30
2010,10,19,05,16,8.30
2010,10,19,05,17,8.30
2010,10,19,05,18,8.30
2010,10,19,05,19,8.30
2010,10,19,05,20,8.30
2010,10,19,05,21,8.30
2010,10,19,05,22,8.30
2010,10,19,05,23,8.30
2010,10,19,05,24,8.30
2010,10,19,05,25,8.30
2010,10,19,05,26,8.30
2010,10,19,05,27,8.30
2010,10,19,05,28,8.30
2010,10,19,05,29,8.30
2010,10,19,05,30,8.30
2010,10,19,05,31,8.30
2010,10,19,05,32,8.30
2010,10,19,05,33,8.30
2010,10,19,05,34,8.30
2010,10,19,05,35,8.30
2010,10,19,05,36,8.30
2010,10,19,05,37,8.30
2010,10,19,05,38,8.20
2010,10,19,05,39,8.20
2010,10,19,05,40,8.20
2010,10,19,05,41,8.20
2010,10,19,05,42,8.20
2010,10,19,05,43,8.20
2010,10,19,05,44,8.30
2010,10,19,05,45,8.30
2010,10,19,05,46,8.30
2010,10,19,05,47,8.30
2010,10,19,05,48,8.30
2010,10,19,05,49,8.30
2010,10,19,05,50,8.30
2010,10,19,05,51,8.40
2010,10,19,05,52,8.40
2010,10,19,05,53,8.40
2010,10,19,05,54,8.40
2010,10,19,05,55,8.50
2010,10,19,05,56,8.50
2010,10,19,05,57,8.50
2010,10,19,05,58,8.50
2010,10,19,05,59,8.50
2010,10,19,06,00,8.50
2010,10,19,06,01,8.50
2010,10,19,06,02,8.50
2010,10,19,06,03,8.60
2010,10,19,06,04,8.60
2010,10,19,06,05,8.60
2010,10,19,06,06,8.60
2010,10,19,06,07,8.60
2010,10,19,06,08,8.60
2010,10,19,06,09,8.60
2010,10,19,06,10,8.60
2010,10,19,06,11,8.60
2010,10,19,06,12,8.60
2010,10,19,06,13,8.60
2010,10,19,06,14,8.60
2010,10,19,06,15,8.60
2010,10,19,06,16,8.60
2010,10,19,06,17,8.60
2010,10,19,06,18,8.60
2010,10,19,06,19,8.60
2010,10,19,06,20,8.60
2010,10,19,06,21,8.60
2010,10,19,06,22,8.60
2010,10,19,06,23,8.50
2010,10,19,06,24,8.50
2010,10,19,06,25,8.50
2010,10,19,06,26,8.50
2010,10,19,06,27,8.50
2010,10,19,06,28,8.50
2010,10,19,06,29,8.50
2010,10,19,06,30,8.40
2010,10,19,06,31,8.40
2010,10,19,06,32,8.40
2010,10,19,06,33,8.40
2010,10,19,06,34,8.40
2010,10,19,06,35,8.40
2010,10,19,06,36,8.40
2010,10,19,06,37,8.40
2010,10,19,06,38,8.30
2010,10,19,06,39,8.30
2010,10,19,06,40,8.30
2010,10,19,06,41,8.30
2010,10,19,06,42,8.20
2010,10,19,06,43,8.20
2010,10,19,06,44,8.20
2010,10,19,06,45,8.20
2010,10,19,06,46,8.20
2010,10,19,06,47,8.20
2010,10,19,06,48,8.20
2010,10,19,06,49,8.20
2010,10,19,06,50,8.10
2010,10,19,06,51,8.10
2010,10,19,06,52,8.10
2010,10,19,06,53,8.10
2010,10,19,06,54,8.10
2010,10,19,06,55,8.10
2010,10,19,06,56,8.10
2010,10,19,06,57,8.10
2010,10,19,06,58,8.10
2010,10,19,06,59,8.10
2010,10,19,07,00,8.10
2010,10,19,07,01,8.10
2010,10,19,07,02,8.10
2010,10,19,07,03,8.10
2010,10,19,07,04,8.10
2010,10,19,07,05,8.10
2010,10,19,07,06,8.10
2010,10,19,07,07,8.10
2010,10,19,07,08,8.10
2010,10,19,07,09,8.20
2010,10,19,07,10,8.20
2010,10,19,07,11,8.20
2010,10,19,07,12,8.20
2010,10,19,07,13,8.20
2010,10,19,07,14,8.20
2010,10,19,07,15,8.20
2010,10,19,07,16,8.20
2010,10,19,07,17,8.20
2010,10,19,07,18,8.20
2010,10,19,07,19,8.20
2010,10,19,07,20,8.20
2010,10,19,07,21,8.20
2010,10,19,07,22,8.20
2010,10,19,07,23,8.20
2010,10,19,07,24,8.20
2010,10,19,07,25,8.20
2010,10,19,07,26,8.30
2010,10,19,07,27,8.30
2010,10,19,07,28,8.30
2010,10,19,07,29,8.20
2010,10,19,07,30,8.20
2010,10,19,07,31,8.20
2010,10,19,07,32,8.20
2010,10,19,07,33,8.20
2010,10,19,07,34,8.20
2010,10,19,07,35,8.20
2010,10,19,07,36,8.20
2010,10,19,07,37,8.20
2010,10,19,07,38,8.20
2010,10,19,07,39,8.20
2010,10,19,07,40,8.20
2010,10,19,07,41,8.20
2010,10,19,07,42,8.20
2010,10,19,07,43,8.20
2010,10,19,07,44,8.20
2010,10,19,07,45,8.20
2010,10,19,07,46,8.20
2010,10,19,07,47,8.10
2010,10,19,07,48,8.10
2010,10,19,07,49,8.10
2010,10,19,07,50,8.10
2010,10,19,07,51,8.10
2010,10,19,07,52,8.10
2010,10,19,07,53,8.10
2010,10,19,07,54,8.10
2010,10,19,07,55,8.10
2010,10,19,07,56,8.00
2010,10,19,07,57,8.00
2010,10,19,07,58,8.00
2010,10,19,07,59,8.00
2010,10,19,08,00,8.00
2010,10,19,08,01,8.00
2010,10,19,08,02,8.00
2010,10,19,08,03,8.00
2010,10,19,08,04,8.10
2010,10,19,08,05,8.00
2010,10,19,08,06,8.00
2010,10,19,08,07,8.00
2010,10,19,08,08,8.00
2010,10,19,08,09,8.00
2010,10,19,08,10,8.00
2010,10,19,08,11,8.00
2010,10,19,08,12,8.00
2010,10,19,08,13,8.00
2010,10,19,08,14,8.00
2010,10,19,08,15,8.00
2010,10,19,08,16,7.90
2010,10,19,08,17,7.90
2010,10,19,08,18,8.00
2010,10,19,08,19,8.00
2010,10,19,08,20,8.00
2010,10,19,08,21,8.00
2010,10,19,08,22,8.00
2010,10,19,08,23,8.00
2010,10,19,08,24,7.90
2010,10,19,08,25,7.90
2010,10,19,08,26,8.00
2010,10,19,08,27,8.00
2010,10,19,08,28,7.90
2010,10,19,08,29,7.90
2010,10,19,08,30,8.00
2010,10,19,08,31,8.00
2010,10,19,08,32,8.00
2010,10,19,08,33,8.00
2010,10,19,08,34,8.00
2010,10,19,08,35,8.00
2010,10,19,08,36,8.00
2010,10,19,08,37,8.10
2010,10,19,08,38,8.10
2010,10,19,08,39,8.10
2010,10,19,08,40,8.10
2010,10,19,08,41,8.20
2010,10,19,08,42,8.20
2010,10,19,08,43,8.20
2010,10,19,08,44,8.20
2010,10,19,08,45,8.30
2010,10,19,08,46,8.30
2010,10,19,08,47,8.40
2010,10,19,08,48,8.40
2010,10,19,08,49,8.40
2010,10,19,08,50,8.50
2010,10,19,08,51,8.50
2010,10,19,08,52,8.50
2010,10,19,08,53,8.50
2010,10,19,08,54,8.60
2010,10,19,08,55,8.60
2010,10,19,08,56,8.60
2010,10,19,08,57,8.60
2010,10,19,08,58,8.60
2010,10,19,08,59,8.70
2010,10,19,09,00,8.70
2010,10,19,09,01,8.70
2010,10,19,09,02,8.70
2010,10,19,09,03,8.70
2010,10,19,09,04,8.80
2010,10,19,09,05,8.80
2010,10,19,09,06,8.80
2010,10,19,09,07,8.80
2010,10,19,09,08,8.90
2010,10,19,09,09,9.00
2010,10,19,09,10,9.00
2010,10,19,09,11,9.10
2010,10,19,09,12,9.10
2010,10,19,09,13,9.20
2010,10,19,09,14,9.30
2010,10,19,09,15,9.30
2010,10,19,09,16,9.40
2010,10,19,09,17,9.40
2010,10,19,09,18,9.50
2010,10,19,09,19,9.50
2010,10,19,09,20,9.60
2010,10,19,09,21,9.60
2010,10,19,09,22,9.70
2010,10,19,09,23,9.70
2010,10,19,09,24,9.70
2010,10,19,09,25,9.80
2010,10,19,09,26,9.90
2010,10,19,09,27,9.90
2010,10,19,09,28,10.00
2010,10,19,09,29,10.00
2010,10,19,09,30,10.10
2010,10,19,09,31,10.10
2010,10,19,09,32,10.10
2010,10,19,09,33,10.20
2010,10,19,09,34,10.20
2010,10,19,09,35,10.20
2010,10,19,09,36,10.30
2010,10,19,09,37,10.40
2010,10,19,09,38,10.40
2010,10,19,09,39,10.50
2010,10,19,09,40,10.60
2010,10,19,09,41,10.70
2010,10,19,09,42,10.70
2010,10,19,09,43,10.80
2010,10,19,09,44,10.80
2010,10,19,09,45,10.90
2010,10,19,09,46,10.90
2010,10,19,09,47,11.00
2010,10,19,09,48,11.10
2010,10,19,09,49,11.10
2010,10,19,09,50,11.20
2010,10,19,09,51,11.30
2010,10,19,09,52,11.40
2010,10,19,09,53,11.50
2010,10,19,09,54,11.60
2010,10,19,09,55,11.70
2010,10,19,09,56,11.70
2010,10,19,09,57,11.70
2010,10,19,09,58,11.70
2010,10,19,09,59,11.80
2010,10,19,10,00,11.80
2010,10,19,10,01,11.90
2010,10,19,10,02,11.90
2010,10,19,10,03,11.90
2010,10,19,10,04,12.00
2010,10,19,10,05,12.00
2010,10,19,10,06,12.10
2010,10,19,10,07,12.10
2010,10,19,10,08,12.10
2010,10,19,10,09,12.10
2010,10,19,10,10,12.10
2010,10,19,10,11,12.10
2010,10,19,10,12,12.20
2010,10,19,10,13,12.20
2010,10,19,10,14,12.20
2010,10,19,10,15,12.20
2010,10,19,10,16,12.20
2010,10,19,10,17,12.20
2010,10,19,10,18,12.20
2010,10,19,10,19,12.20
2010,10,19,10,20,12.20
2010,10,19,10,21,12.20
2010,10,19,10,22,12.10
2010,10,19,10,23,12.10
2010,10,19,10,24,12.10
2010,10,19,10,25,12.10
2010,10,19,10,26,12.20
2010,10,19,10,27,12.20
2010,10,19,10,28,12.20
2010,10,19,10,29,12.20
2010,10,19,10,30,12.20
2010,10,19,10,31,12.20
2010,10,19,10,32,12.30
2010,10,19,10,33,12.30
2010,10,19,10,34,12.40
2010,10,19,10,35,12.40
2010,10,19,10,36,12.40
2010,10,19,10,37,12.40
2010,10,19,10,38,12.50
2010,10,19,10,39,12.50
2010,10,19,10,40,12.60
2010,10,19,10,41,12.60
2010,10,19,10,42,12.60
2010,10,19,10,43,12.60
2010,10,19,10,44,12.60
2010,10,19,10,45,12.60
2010,10,19,10,46,12.70
2010,10,19,10,47,12.70
2010,10,19,10,48,12.70
2010,10,19,10,49,12.80
2010,10,19,10,50,12.80
2010,10,19,10,51,12.80
2010,10,19,10,52,12.70
2010,10,19,10,53,12.70
2010,10,19,10,54,12.70
2010,10,19,10,55,12.70
2010,10,19,10,56,12.70
2010,10,19,10,57,12.70
2010,10,19,10,58,12.70
2010,10,19,10,59,12.70
2010,10,19,11,00,12.70
2010,10,19,11,01,12.70
2010,10,19,11,02,12.70
2010,10,19,11,03,12.70
2010,10,19,11,04,12.70
2010,10,19,11,05,12.70
2010,10,19,11,06,12.70
2010,10,19,11,07,12.70
2010,10,19,11,08,12.70
2010,10,19,11,09,12.70
2010,10,19,11,10,12.60
2010,10,19,11,11,12.60
2010,10,19,11,12,12.60
2010,10,19,11,13,12.60
2010,10,19,11,14,12.60
2010,10,19,11,15,12.60
2010,10,19,11,16,12.60
2010,10,19,11,17,12.60
2010,10,19,11,18,12.60
2010,10,19,11,19,12.60
2010,10,19,11,20,12.60
2010,10,19,11,21,12.60
2010,10,19,11,22,12.60
2010,10,19,11,23,12.60
2010,10,19,11,24,12.60
2010,10,19,11,25,12.60
2010,10,19,11,26,12.60
2010,10,19,11,27,12.70
2010,10,19,11,28,12.70
2010,10,19,11,29,12.80
2010,10,19,11,30,12.80
2010,10,19,11,31,12.80
2010,10,19,11,32,12.80
2010,10,19,11,33,12.90
2010,10,19,11,34,12.90
2010,10,19,11,35,12.90
2010,10,19,11,36,12.90
2010,10,19,11,37,12.90
2010,10,19,11,38,12.90
2010,10,19,11,39,12.90
2010,10,19,11,40,13.00
2010,10,19,11,41,12.90
2010,10,19,11,42,12.90
2010,10,19,11,43,12.90
2010,10,19,11,44,12.90
2010,10,19,11,45,12.90
2010,10,19,11,46,12.90
2010,10,19,11,47,12.90
2010,10,19,11,48,12.90
2010,10,19,11,49,12.90
2010,10,19,11,50,12.80
2010,10,19,11,51,12.80
2010,10,19,11,52,12.80
2010,10,19,11,53,12.80
2010,10,19,11,54,12.80
2010,10,19,11,55,12.80
2010,10,19,11,56,12.80
2010,10,19,11,57,12.80
2010,10,19,11,58,12.80
2010,10,19,11,59,12.80
2010,10,19,12,00,12.80
2010,10,19,12,01,12.80
2010,10,19,12,02,12.80
2010,10,19,12,03,12.80
2010,10,19,12,04,12.80
2010,10,19,12,05,12.80
2010,10,19,12,06,12.70
2010,10,19,12,07,12.70
2010,10,19,12,08,12.70
2010,10,19,12,09,12.60
2010,10,19,12,10,12.60
2010,10,19,12,11,12.60
2010,10,19,12,12,12.50
2010,10,19,12,13,12.50
2010,10,19,12,14,12.50
2010,10,19,12,15,12.50
2010,10,19,12,16,12.60
2010,10,19,12,17,12.60
2010,10,19,12,18,12.60
2010,10,19,12,19,12.60
2010,10,19,12,20,12.60
2010,10,19,12,21,12.70
2010,10,19,12,22,12.70
2010,10,19,12,23,12.70
2010,10,19,12,24,12.70
2010,10,19,12,25,12.70
2010,10,19,12,26,12.70
2010,10,19,12,27,12.70
2010,10,19,12,28,12.70
2010,10,19,12,29,12.80
2010,10,19,12,30,12.80
2010,10,19,12,31,12.80
2010,10,19,12,32,12.80
2010,10,19,12,33,12.80
2010,10,19,12,34,12.80
2010,10,19,12,35,12.80
2010,10,19,12,36,12.80
2010,10,19,12,37,12.80
2010,10,19,12,38,12.80
2010,10,19,12,39,12.80
2010,10,19,12,40,12.80
2010,10,19,12,41,12.80
2010,10,19,12,42,12.70
2010,10,19,12,43,12.80
2010,10,19,12,44,12.80
2010,10,19,12,45,12.80
2010,10,19,12,46,12.80
2010,10,19,12,47,12.80
2010,10,19,12,48,12.80
2010,10,19,12,49,12.80
2010,10,19,12,50,12.90
2010,10,19,12,51,12.90
2010,10,19,12,52,12.90
2010,10,19,12,53,12.90
2010,10,19,12,54,13.00
2010,10,19,12,55,13.00
2010,10,19,12,56,13.10
2010,10,19,12,57,13.10
2010,10,19,12,58,13.10
2010,10,19,12,59,13.10
2010,10,19,13,00,13.10
2010,10,19,13,01,13.10
2010,10,19,13,02,13.10
2010,10,19,13,03,13.10
2010,10,19,13,04,13.10
2010,10,19,13,05,13.10
2010,10,19,13,06,13.10
2010,10,19,13,07,13.10
2010,10,19,13,08,13.10
2010,10,19,13,09,13.10
2010,10,19,13,10,13.10
2010,10,19,13,11,13.10
2010,10,19,13,12,13.00
2010,10,19,13,13,13.00
2010,10,19,13,14,13.00
2010,10,19,13,15,13.10
2010,10,19,13,16,13.10
2010,10,19,13,17,13.10
2010,10,19,13,18,13.10
2010,10,19,13,19,13.10
2010,10,19,13,20,13.10
2010,10,19,13,21,13.10
2010,10,19,13,22,13.10
2010,10,19,13,23,13.10
2010,10,19,13,24,13.10
2010,10,19,13,25,13.10
2010,10,19,13,26,13.10
2010,10,19,13,27,13.10
2010,10,19,13,28,13.10
2010,10,19,13,29,13.00
2010,10,19,13,30,13.00
2010,10,19,13,31,13.00
2010,10,19,13,32,12.90
2010,10,19,13,33,12.90
2010,10,19,13,34,12.90
2010,10,19,13,35,12.90
2010,10,19,13,36,13.00
2010,10,19,13,37,13.00
2010,10,19,13,38,13.00
2010,10,19,13,39,13.10
2010,10,19,13,40,13.10
2010,10,19,13,41,13.10
2010,10,19,13,42,13.20
2010,10,19,13,43,13.20
2010,10,19,13,44,13.30
2010,10,19,13,45,13.30
2010,10,19,13,46,13.40
2010,10,19,13,47,13.40
2010,10,19,13,48,13.50
2010,10,19,13,49,13.60
2010,10,19,13,50,13.60
2010,10,19,13,51,13.60
2010,10,19,13,52,13.70
2010,10,19,13,53,13.70
2010,10,19,13,54,13.70
2010,10,19,13,55,13.70
2010,10,19,13,56,13.80
2010,10,19,13,57,13.80
2010,10,19,13,58,13.80
2010,10,19,13,59,13.80
2010,10,19,14,00,13.80
2010,10,19,14,01,13.90
2010,10,19,14,02,13.90
2010,10,19,14,03,13.90
2010,10,19,14,04,13.90
2010,10,19,14,05,13.90
2010,10,19,14,06,13.80
2010,10,19,14,07,13.80
2010,10,19,14,08,13.90
2010,10,19,14,09,13.80
2010,10,19,14,10,13.80
2010,10,19,14,11,13.80
2010,10,19,14,12,13.80
2010,10,19,14,13,13.80
2010,10,19,14,14,13.90
2010,10,19,14,15,13.90
2010,10,19,14,16,13.90
2010,10,19,14,17,13.90
2010,10,19,14,18,13.90
2010,10,19,14,19,13.80
2010,10,19,14,20,13.80
2010,10,19,14,21,13.80
2010,10,19,14,22,13.80
2010,10,19,14,23,13.70
2010,10,19,14,24,13.70
2010,10,19,14,25,13.70
2010,10,19,14,26,13.70
2010,10,19,14,27,13.70
2010,10,19,14,28,13.70
2010,10,19,14,29,13.80
2010,10,19,14,30,13.80
2010,10,19,14,31,13.80
2010,10,19,14,32,13.80
2010,10,19,14,33,13.80
2010,10,19,14,34,13.80
2010,10,19,14,35,13.80
2010,10,19,14,36,13.80
2010,10,19,14,37,13.80
2010,10,19,14,38,13.80
2010,10,19,14,39,13.80
2010,10,19,14,40,13.80
2010,10,19,14,41,13.80
2010,10,19,14,42,13.90
2010,10,19,14,43,13.90
2010,10,19,14,44,13.90
2010,10,19,14,45,13.90
2010,10,19,14,46,13.90
2010,10,19,14,47,13.90
2010,10,19,14,48,13.90
2010,10,19,14,49,13.90
2010,10,19,14,50,13.90
2010,10,19,14,51,14.00
2010,10,19,14,52,14.00
2010,10,19,14,53,14.00
2010,10,19,14,54,14.10
2010,10,19,14,55,14.10
2010,10,19,14,56,14.10
2010,10,19,14,57,14.10
2010,10,19,14,58,14.10
2010,10,19,14,59,14.10
2010,10,19,15,00,14.10
2010,10,19,15,01,14.10
2010,10,19,15,02,14.10
2010,10,19,15,03,14.10
2010,10,19,15,04,14.10
2010,10,19,15,05,14.10
2010,10,19,15,06,14.10
2010,10,19,15,07,14.20
2010,10,19,15,08,14.10
2010,10,19,15,09,14.20
2010,10,19,15,10,14.20
2010,10,19,15,11,14.30
2010,10,19,15,12,14.30
2010,10,19,15,13,14.40
2010,10,19,15,14,14.50
2010,10,19,15,15,14.50
2010,10,19,15,16,14.60
2010,10,19,15,17,14.60
2010,10,19,15,18,14.60
2010,10,19,15,19,14.60
2010,10,19,15,20,14.60
2010,10,19,15,21,14.50
2010,10,19,15,22,14.50
2010,10,19,15,23,14.50
2010,10,19,15,24,14.50
2010,10,19,15,25,14.50
2010,10,19,15,26,14.50
2010,10,19,15,27,14.50
2010,10,19,15,28,14.60
2010,10,19,15,29,14.60
2010,10,19,15,30,14.60
2010,10,19,15,31,14.60
2010,10,19,15,32,14.60
2010,10,19,15,33,14.50
2010,10,19,15,34,14.50
2010,10,19,15,35,14.40
2010,10,19,15,36,14.30
2010,10,19,15,37,14.20
2010,10,19,15,38,14.10
2010,10,19,15,39,14.00
2010,10,19,15,40,13.90
2010,10,19,15,41,13.80
2010,10,19,15,42,13.70
2010,10,19,15,43,13.60
2010,10,19,15,44,13.60
2010,10,19,15,45,13.50
2010,10,19,15,46,13.40
2010,10,19,15,47,13.40
2010,10,19,15,48,13.40
2010,10,19,15,49,13.30
2010,10,19,15,50,13.30
2010,10,19,15,51,13.30
2010,10,19,15,52,13.30
2010,10,19,15,53,13.30
2010,10,19,15,54,13.30
2010,10,19,15,55,13.30
2010,10,19,15,56,13.30
2010,10,19,15,57,13.30
2010,10,19,15,58,13.30
2010,10,19,15,59,13.40
2010,10,19,16,00,13.40
2010,10,19,16,01,13.40
2010,10,19,16,02,13.50
2010,10,19,16,03,13.50
2010,10,19,16,04,13.50
2010,10,19,16,05,13.60
2010,10,19,16,06,13.60
2010,10,19,16,07,13.70
2010,10,19,16,08,13.70
2010,10,19,16,09,13.80
2010,10,19,16,10,13.80
2010,10,19,16,11,13.90
2010,10,19,16,12,14.00
2010,10,19,16,13,14.00
2010,10,19,16,14,14.10
2010,10,19,16,15,14.10
2010,10,19,16,16,14.20
2010,10,19,16,17,14.20
2010,10,19,16,18,14.20
2010,10,19,16,19,14.20
2010,10,19,16,20,14.20
2010,10,19,16,21,14.20
2010,10,19,16,22,14.20
2010,10,19,16,23,14.30
2010,10,19,16,24,14.30
2010,10,19,16,25,14.30
2010,10,19,16,26,14.30
2010,10,19,16,27,14.30
2010,10,19,16,28,14.30
2010,10,19,16,29,14.30
2010,10,19,16,30,14.30
2010,10,19,16,31,14.30
2010,10,19,16,32,14.30
2010,10,19,16,33,14.30
2010,10,19,16,34,14.20
2010,10,19,16,35,14.20
2010,10,19,16,36,14.20
2010,10,19,16,37,14.20
2010,10,19,16,38,14.20
2010,10,19,16,39,14.20
2010,10,19,16,40,14.20
2010,10,19,16,41,14.20
2010,10,19,16,42,14.20
2010,10,19,16,43,14.20
2010,10,19,16,44,14.20
2010,10,19,16,45,14.20
2010,10,19,16,46,14.20
2010,10,19,16,47,14.20
2010,10,19,16,48,14.20
2010,10,19,16,49,14.20
2010,10,19,16,50,14.20
2010,10,19,16,51,14.20
2010,10,19,16,52,14.20
2010,10,19,16,53,14.20
2010,10,19,16,54,14.20
2010,10,19,16,55,14.20
2010,10,19,16,56,14.10
2010,10,19,16,57,14.10
2010,10,19,16,58,14.00
2010,10,19,16,59,14.00
2010,10,19,17,00,13.90
2010,10,19,17,01,13.80
2010,10,19,17,02,13.80
2010,10,19,17,03,13.70
2010,10,19,17,04,13.60
2010,10,19,17,05,13.60
2010,10,19,17,06,13.50
2010,10,19,17,07,13.50
2010,10,19,17,08,13.40
2010,10,19,17,09,13.30
2010,10,19,17,10,13.30
2010,10,19,17,11,13.20
2010,10,19,17,12,13.20
2010,10,19,17,13,13.10
2010,10,19,17,14,13.10
2010,10,19,17,15,13.00
2010,10,19,17,16,13.00
2010,10,19,17,17,13.00
2010,10,19,17,18,12.90
2010,10,19,17,19,12.90
2010,10,19,17,20,12.90
2010,10,19,17,21,12.80
2010,10,19,17,22,12.80
2010,10,19,17,23,12.80
2010,10,19,17,24,12.80
2010,10,19,17,25,12.70
2010,10,19,17,26,12.70
2010,10,19,17,27,12.70
2010,10,19,17,28,12.70
2010,10,19,17,29,12.70
2010,10,19,17,30,12.60
2010,10,19,17,31,12.60
2010,10,19,17,32,12.60
2010,10,19,17,33,12.60
2010,10,19,17,34,12.60
2010,10,19,17,35,12.50
2010,10,19,17,36,12.50
2010,10,19,17,37,12.50
2010,10,19,17,38,12.40
2010,10,19,17,39,12.40
2010,10,19,17,40,12.40
2010,10,19,17,41,12.40
2010,10,19,17,42,12.30
2010,10,19,17,43,12.30
2010,10,19,17,44,12.30